Location: Newark
(48.6461°N, 4.3644°W)
Time: 07:01:12
(UTC+00:00)

Altair - Pass Details

Date: 24 January 2021
Orbit: 1501 x 1682 km, 47.2° (Epoch: 24 February)

Event Time Altitude Azimuth Distance (km) Brightness Sun altitude
Rises 07:01:26 0° 251° (WSW) 4,888 9.7 -9.2°
Reaches altitude 10° 07:04:34 10° 250° (WSW) 3,917 9.2 -8.7°
Maximum altitude 07:14:39 78° 166° (SSE) 1,718 7.9 -7.1°
Drops below altitude 10° 07:24:48 10° 83° (E) 3,935 10.7 -5.6°
Sets 07:27:57 0° 82° (E) 4,911 11.3 -5.1°
